DateTimeUTC,F1_A11,F1_S11,BsB_S11,BsG_S11,BsR_S11,BbsB_S11,BbsG_S11,BbsR_S11,BaB_A11,BaG_A11,BaR_A11,Tu_S11,T_S11,Uu_S11,U_S11,P_S11,T1_A11
2021-02-17T17:00:00Z,00000200,21000000,,,,,,,0000.17,-000.37,-000.17,16.0,22.9,,00.0,0636.6,30.9
2021-02-17T17:01:00Z,00000200,21000000,,,,,,,-000.14,0000.13,0000.08,16.0,22.9,,00.0,0636.6,30.9
2021-02-17T17:02:00Z,00000200,21000000,,,,,,,0000.22,-000.01,0000.15,16.0,22.9,,00.0,0636.6,30.9
2021-02-17T17:03:00Z,00000200,61000000,,,,,,,-000.05,0000.14,-000.06,16.0,22.9,,00.0,0636.6,30.9
2021-02-17T17:04:00Z,00000200,41000000,0000.39,0000.24,-000.08,0000.23,-000.35,0000.06,0000.35,0000.04,0000.26,16.1,22.6,,00.0,0637.4,30.9
2021-02-17T17:05:00Z,00000200,01000000,0000.48,0000.04,0000.21,-000.23,0000.03,0000.12,0000.07,0000.49,-000.11,16.1,22.6,,00.0,0637.4,30.9
2021-02-17T17:06:00Z,00000200,01000000,0000.08,0000.43,-000.08,0000.30,-000.01,0000.14,0000.42,0000.28,0000.36,16.2,22.6,,00.0,0637.4,30.9
2021-02-17T17:07:00Z,00000200,01000000,0000.84,0000.21,-000.21,-000.05,-000.09,-000.21,0000.27,0000.09,0000.18,16.4,22.6,,00.0,0637.4,31.0
2021-02-17T17:08:00Z,00000200,01000000,0000.22,0000.10,-000.13,0000.96,0000.01,-000.08,0000.20,0000.12,0000.33,16.5,22.7,,00.0,0637.4,31.0
2021-02-17T17:09:00Z,00000200,01000000,0001.04,0000.28,-000.30,-000.09,-000.02,-000.09,0000.08,0000.41,0000.11,16.6,22.7,,00.0,0637.4,31.0
2021-02-17T17:10:00Z,00000200,01000000,0000.79,0000.26,-000.10,-000.16,0000.28,-000.01,0000.23,0000.03,0000.03,16.7,22.8,,00.0,0637.4,31.0
2021-02-17T17:11:00Z,00000200,01000000,-000.21,0000.06,0000.05,0000.35,-000.04,-000.22,0000.08,-000.04,0000.28,16.8,22.8,,00.0,0637.4,31.0
2021-02-17T17:12:00Z,00000200,01000000,0000.38,0000.36,-000.15,-000.50,0000.14,-000.16,-000.12,0000.25,-000.05,16.9,22.9,,00.0,0637.4,31.1
2021-02-17T17:13:00Z,00000200,01000000,0000.12,0000.14,-000.01,0000.23,0000.31,-000.03,-000.06,-000.01,0000.07,17.0,22.9,,00.0,0637.4,31.1
2021-02-17T17:14:00Z,00000200,01000000,0000.64,0000.19,0000.17,-000.28,0000.14,-000.28,0000.24,-000.20,0000.17,17.1,23.0,,00.0,0637.4,31.1
2021-02-17T17:15:00Z,00000200,01000000,0000.71,0000.22,-000.10,0000.27,0000.17,-000.13,0000.01,0000.16,-000.41,17.1,23.0,,00.0,0637.4,31.1
2021-02-17T17:16:00Z,00000200,01000000,0000.61,0000.15,-000.17,-000.07,0000.10,-000.03,0000.08,0000.18,0000.09,17.1,23.0,,00.0,0637.4,31.0
2021-02-17T17:17:00Z,00000200,01000000,0000.38,0000.13,0000.24,0000.36,0000.01,-000.24,-000.29,-000.19,-000.09,17.1,23.0,,00.0,0637.4,31.0
2021-02-17T17:18:00Z,00000200,01000000,0000.36,0000.24,0000.32,-000.04,0000.21,-000.16,0000.10,-000.25,-000.35,17.0,23.0,,00.0,0637.4,31.0
2021-02-17T17:19:00Z,00000200,01000000,0000.69,0000.19,-000.07,0000.43,0000.12,-000.12,-000.16,0000.20,0000.41,17.0,23.0,,00.0,0637.4,31.0
2021-02-17T17:20:00Z,00000200,01000000,-000.12,0000.20,0000.17,0000.27,0000.01,0000.10,0000.26,0000.28,-000.27,17.0,23.0,,00.0,0637.4,31.0
2021-02-17T17:21:00Z,00000200,01000000,0000.75,0000.05,-000.06,0000.43,0000.03,-000.24,0000.01,-000.09,0000.40,17.1,23.0,,00.0,0637.4,31.0
2021-02-17T17:22:00Z,00000200,01000000,0000.41,0000.26,-000.03,-000.27,0000.05,-000.14,0000.31,0000.18,-000.00,17.1,23.1,,00.0,0637.4,31.0
2021-02-17T17:23:00Z,00000200,01000000,0000.20,0000.27,0000.40,-000.15,0000.06,0000.02,0000.01,0000.01,0000.34,17.2,23.1,,00.0,0637.4,31.1
2021-02-17T17:24:00Z,00000200,01000000,0000.36,0000.37,0000.11,-000.03,0000.19,-000.22,-000.08,0000.44,-000.37,17.3,23.2,,00.0,0637.4,31.1
2021-02-17T17:25:00Z,00000200,01000000,-000.12,0000.20,-000.03,0000.16,0000.04,-000.15,-000.01,0000.15,0000.05,17.3,23.2,,00.0,0637.5,31.0
2021-02-17T17:26:00Z,00000200,01000000,0001.60,0000.25,-000.04,0000.73,0000.09,0000.08,0000.02,-000.59,-000.00,17.3,23.2,,00.0,0637.4,31.0
2021-02-17T17:27:00Z,00000200,01000000,0000.01,0000.41,0000.09,0000.13,0000.14,-000.08,0000.03,-000.16,0000.11,17.3,23.2,,00.0,0637.4,31.0
2021-02-17T17:28:00Z,00000200,01000000,0000.68,0000.32,0000.01,0000.29,-000.10,0000.21,0000.02,0000.14,-000.02,17.2,23.2,,00.0,0637.4,31.0
2021-02-17T17:29:00Z,00000200,01000000,0000.71,-000.16,-000.18,0000.14,0000.06,-000.08,0000.05,0000.16,-000.02,17.2,23.2,,00.0,0637.5,31.0
2021-02-17T17:30:00Z,00000200,01000000,0000.73,0000.26,-000.21,0000.23,-000.07,-000.18,0000.13,-000.02,-000.08,17.1,23.2,,00.0,0637.5,31.0
2021-02-17T17:31:00Z,00000200,01000000,0000.42,0000.08,-000.21,-000.26,0000.07,-000.10,-000.14,0000.20,0000.02,17.1,23.2,,00.0,0637.5,31.0
2021-02-17T17:32:00Z,00000200,01000000,-000.39,0000.10,0000.13,0000.10,-000.15,-000.37,-000.02,-000.21,0000.09,17.0,23.1,,00.0,0637.5,31.0
2021-02-17T17:33:00Z,00000200,01000000,-000.00,0000.15,0000.01,-000.20,0000.16,0000.10,0000.18,-000.01,-000.28,17.0,23.1,,00.0,0637.5,31.0
2021-02-17T17:34:00Z,00000200,01000000,0000.38,0000.11,-000.19,0000.20,0000.03,-000.09,0000.27,0000.23,0000.61,17.0,23.1,,00.0,0637.5,31.0
2021-02-17T17:35:00Z,00000200,01000000,-000.82,-000.05,0000.13,-000.05,0000.10,-000.21,0000.33,-000.06,-000.19,17.0,23.1,,00.0,0637.5,31.0
2021-02-17T17:36:00Z,00000200,01000000,0000.82,0000.10,0000.19,0000.19,-000.06,0000.30,-000.04,0000.20,0000.27,17.0,23.1,,00.0,0637.4,31.0
2021-02-17T17:37:00Z,00000200,01000000,0000.15,0000.08,0000.36,-000.07,0000.09,-000.06,0000.37,-000.01,0000.31,17.1,23.2,,00.0,0637.4,31.0
2021-02-17T17:38:00Z,00000200,01000000,-000.27,0000.20,-000.10,-000.23,-000.10,-000.16,-000.01,0000.46,-000.04,17.2,23.2,,00.0,0637.5,31.0
2021-02-17T17:39:00Z,00000200,01000000,0000.56,-000.10,0000.03,0000.24,-000.03,-000.14,-000.21,-000.03,0000.05,17.3,23.2,,00.0,0637.5,31.0
2021-02-17T17:40:00Z,00000200,01000000,0000.74,0000.07,0000.03,0000.09,-000.02,-000.18,0000.04,0000.29,0000.18,17.3,23.2,,00.0,0637.4,31.0
2021-02-17T17:41:00Z,00000200,01000000,0000.42,0000.15,0000.04,-000.13,-000.10,-000.16,0000.29,-000.03,-000.02,17.3,23.2,,00.0,0637.4,31.0
2021-02-17T17:42:00Z,00000200,01000000,-000.15,-000.02,0000.11,0000.29,0000.00,-000.00,0000.18,0000.42,0000.36,17.2,23.2,,00.0,0637.5,31.0
2021-02-17T17:43:00Z,00000200,01000000,0000.10,0000.21,-000.00,0000.12,0000.13,0000.13,0000.14,0000.12,-000.39,17.2,23.2,,00.0,0637.5,31.0
2021-02-17T17:44:00Z,00000200,01000000,-000.05,0000.36,0000.16,0000.41,0000.27,0000.19,-000.01,-000.40,0000.11,17.1,23.2,,00.0,0637.5,31.0
2021-02-17T17:45:00Z,00000200,01000000,0000.82,0000.26,0000.04,0000.14,0000.21,0000.01,0000.33,0000.13,0000.08,17.1,23.2,,00.0,0637.4,31.0
2021-02-17T17:46:00Z,00000200,01000000,0000.72,0000.10,-000.21,-000.02,0000.00,-000.05,-000.27,0000.25,0000.06,17.0,23.2,,00.0,0637.5,31.0
2021-02-17T17:47:00Z,00000200,01000000,0000.06,-000.19,-000.07,0000.12,0000.22,-000.22,0000.63,0000.17,0000.36,17.0,23.1,,00.0,0637.5,31.0
2021-02-17T17:48:00Z,00000200,01000000,0000.23,0000.21,-000.02,-000.30,-000.09,-000.19,-000.46,-000.27,-000.49,16.9,23.1,,00.0,0637.5,31.0
2021-02-17T17:49:00Z,00000200,01000000,0000.86,0000.39,-000.12,0000.49,-000.00,0000.25,0000.16,0000.19,0000.07,16.9,23.1,,00.0,0637.5,31.0
2021-02-17T17:50:00Z,00000200,01000000,0000.82,-000.08,-000.23,0000.17,-000.14,0000.04,-000.06,0000.01,0000.19,16.8,23.1,,00.0,0637.5,31.0
2021-02-17T17:51:00Z,00000200,01000000,-000.11,0000.09,0000.09,0000.43,0000.01,0000.09,0000.26,0000.10,0000.29,16.8,23.1,,00.0,0637.5,31.0
2021-02-17T17:52:00Z,00000200,01000000,-000.21,0000.10,0000.12,0000.26,0000.09,-000.21,0000.01,0000.24,0000.14,16.8,23.0,,00.0,0637.5,31.0
2021-02-17T17:53:00Z,00000200,01000000,0000.90,0000.03,0000.43,-000.48,-000.04,0000.17,0000.17,0000.31,-000.03,16.7,23.0,,00.0,0637.5,31.0
2021-02-17T17:54:00Z,00000200,01000000,0000.31,0000.09,0000.08,0000.02,0000.17,0000.03,-000.03,-000.04,0000.10,16.7,23.0,,00.0,0637.4,31.0
2021-02-17T17:55:00Z,00000200,01000000,-000.06,0000.45,-000.28,0000.05,-000.03,0000.13,0000.19,-000.43,-000.04,16.7,23.0,,00.0,0637.5,31.0
2021-02-17T17:56:00Z,00000200,01000000,0000.82,0000.17,0000.17,0000.61,0000.11,0000.11,0000.37,0000.74,0000.19,16.6,22.9,,00.0,0637.5,30.9
2021-02-17T17:57:00Z,00000200,41000000,,,,,,,-000.89,-001.23,-001.02,16.6,22.9,,00.0,0637.4,30.9
2021-02-17T17:58:00Z,00000200,61000000,,,,,,,-000.03,0000.01,0000.27,16.3,23.0,,00.0,0636.6,30.9
2021-02-17T17:59:00Z,00000200,21000000,,,,,,,0000.30,0000.41,0000.52,16.2,23.1,,00.0,0636.5,30.9
